Skip Page Navigation
NASA JPL Caltech
NASA Logo - Jet Propulsion Laboratory + View the NASA Portal
+ Center for Near-Earth Object Studies
JPL Home Earth Solar System Stars & Galaxies Technology
JPL Solar System Dynamics
BODIES ORBITS EPHEMERIDES TOOLS PHYSICAL DATA DISCOVERY FAQ SITE MAP
IMPORTANT: The SSD Announcement email list is now available. Major changes are coming in the near future, including possible hostname and/or URL changes. To be notified of such changes, subscribe to this email list.

Please visit this page for more details.


JPL Small-Body Database Browser
Search: [ help ]  
214304 (2005 JK15)
Classification: Main-belt Asteroid          SPK-ID: 2214304
Ephemeris | Orbit Diagram | Orbital Elements | Mission Design | Physical Parameters | Discovery Circumstances | Close-Approach Data ]

[ show orbit diagram ]
Orbital Elements at Epoch 2458600.5 (2019-Apr-27.0) TDB
Reference: JPL 14 (heliocentric ecliptic J2000)
 Element Value Uncertainty (1-sigma)   Units 
e .1200376415393073 5.3871e-08  
a 2.717051083782032 2.3756e-08 au
q 2.390902679743018 1.4502e-07 au
i 4.213290575984789 6.7729e-06 deg
node 209.8714527967564 6.222e-05 deg
peri 122.0941193103027 6.7197e-05 deg
M 312.5606923767632 2.4529e-05 deg
tp 2458816.066352653212
(2019-Nov-28.56635265)
0.00011231 TDB
period 1635.856230691367
4.48
2.1454e-05
5.874e-08
d
yr
n .2200682390333606 2.8862e-09 deg/d
Q 3.043199487821046 2.6607e-08 au
  Orbit Determination Parameters
   # obs. used (total)      338  
   data-arc span      5654 days (15.48 yr)  
   first obs. used      2002-10-30  
   last obs. used      2018-04-23  
   planetary ephem.      DE431  
   SB-pert. ephem.      SB431-N16  
   condition code      0  
   norm. resid. RMS      .55005  
   source      ORB  
   producer      Otto Matic  
   solution date      2018-May-07 06:06:46  

Additional Information
 Earth MOID = 1.38297 au 
 Jupiter MOID = 2.29935 au 
 T_jup = 3.346 
[ show covariance matrix ]

Ephemeris | Orbit Diagram | Orbital Elements | Mission Design | Physical Parameters | Discovery Circumstances | Close-Approach Data ]

Physical Parameter Table
Parameter Symbol Value Units Sigma Reference Notes
absolute magnitude H 16.2   n/a MPO440132  
rotation period rot_per 11.73 h n/a LCDB (Rev. 2019-January); Warner et al., 2009 Published Reference List:
[Molnar, L.; Pal, A.; Sarneczky, K.; Szabo, R.; et al. (2017) ArXiv:170606056v1]

214304 (2005 JK15)          Discovered 2005-May-03 by Spacewatch at Kitt Peak
Reference: 20090509/Numbers.arcLast Updated: 2009-05-11

[ show close-approach data ]
Alternate Designations
 2005 JK15 = 2006 QW165 
Ephemeris | Orbit Diagram | Orbital Elements | Mission Design | Physical Parameters | Discovery Circumstances | Close-Approach Data ]
ABOUT SSD CREDITS/AWARDS PRIVACY/COPYRIGHT GLOSSARY LINKS
FirstGov 2019-Dec-16 13:47 UT
(server date/time)  
NASA Home Page
Site Manager:   Ryan S. Park
Webmaster  Alan B. Chamberlin